Погода в Вентспилсе

Погода в Вентспилсе : погода сейчас, прогноз погоды и архив. Всё, что Вы хотите узнать о погоде в Вентспилсе!

Поиск расширенной информации на нашем сайте:

Другие новости

Новости СМИ2

Главная страница сайта

Новости сайта

03.07.2017

Напоминаем, что на нашем специализированном сайте Метеоцентр.Азия вы можете получить высокодетализированные автоматические прогнозы погоды по пунктам России, СНГ и мира в авиационном формате (включающие направление и скорость ветра, видимость, явления погоды, количество и форму облачности, нижнюю и верхнюю границу облачности).


Погода в Вентспилсе - сегодня

Время (UTC), дата Ветер
(°,м/с) 
Видим.   Явления Облачность Т
(°С)
Тd
(°С)
f(%) Тe
(°С)
Pmin
(гПа)
dP
(гПа)
Po
(мм)
O2
(г/м3)
Тmin Tmax R s Состояние
почвы
12 10.12.17 190 (Ю) 20000 м  слаб. ливневой снег [диам. отлож. мокр. снега 3 мм]  10/10 330 м кучево-дожд. 
[Cb cap]
+0.6 +0.4 99 -1  995.5  -1.1  746  300           
15 10.12.17 200 (Ю) 10 км  слаб. ливневой снег [диам. отлож. мокр. снега 0 мм]  10/10 330 м кучево-дожд. 
[Cb cap]
+0.5 +0.2 98 -2  995.7  0.2  746  299           
18 10.12.17 200 (Ю) 10 км  {ливн. осадки} [диам. отлож. мокр. снега 0 мм]  8/8 360 м кучево-дожд. 
[Cb calv]
+0.6 +0.1 96 -2  995.6  -0.1  746  299    +0.9     
21 10.12.17 170 (Ю) 10 км    6/6 660 м 
[Sc diur, vesp]
-0.2 -1.3 92 -2  995.9  0.3  747  301           
00 11.12.17 160 (Ю) 10 км    4/4 300 м 
[St]
-1.9 -2.9 93 -4  995.3  -0.6  746  303           
03 11.12.17 150 (ЮВ) 10 км    4/3 300 м средняя 
[St|Ac trans]
-2.5 -3.5 93 -5  994.6  -0.7  746  303           
06 11.12.17 150 (ЮВ) 10 км    8/0 средняя 
[Ac trans]
-1.8 -3.3 89 -4  994.4  -0.2  746  302  -2.6      18  равномерный
мокрый или
старый снег
100% 
09 11.12.17 150 (ЮВ) 20000 м    6/0 средняя 
[Ac trans]
-0.9 -3 86 -3  995.1  0.7  746  301           
12 11.12.17 150 (ЮВ) 20000 м    9/6 720 м средняя 
[Sc|Ac trans]
-0.7 -2.8 86 -3  994.6  -0.5  746  302           
15 11.12.17 150 (ЮВ) 10 км    10/8 400 м средняя 
[St|Ac As]
-0.4 -2.1 88 -2  995.9  1.3  747  301           
18 11.12.17 160 (Ю) 10 км  в посл. час снег  10/10 360 м 
[St]
-0.2 -0.8 96 -2  996  0.1  747  301    -0.2  0.1     
21 11.12.17 170 (Ю) 10 км    10/10 300 м 
[St]
+0.7 -0.1 94 -2  995.3  -0.7  746  299           
00 12.12.17 160 (Ю) 10 км    10/10 300 м 
[St]
+1.2 +0.3 94 -1  994.1  -1.2  745  299           
03 12.12.17 160 (Ю) 10 км  слаб. дождь  10/10 330 м кучево-дожд. 
[Cb cap]
+1.2 +0.4 94 -1  990.5  -3.6  743  297           
06 12.12.17 180 (Ю) 10 км  слаб. дождь  10/10 330 м 
[Frnb|Ns]
+1.7 +1.1 96 -1  988.8  -1.7  741  296  -0.2    11  равномерный
мокрый или
старый снег
100% 
12 12.12.17 210 (ЮЗ) 11000 м  дождь  10/10 300 м 
[Frnb|Ns]
+4.6 +4.1 97 +3  986.6  -0.9  740  292           
15 12.12.17 250 (З) 9-15{16}  10 км  в посл. час дождь  9/8 360 м кучево-дожд., средняя 
[Cb calv|Ac As]
+6.4 +4.5 88 +3  987.2  0.6  740  290           
18 12.12.17 280 (З) 6{18}  10 км  слаб. ливневой дождь  10/10 330 м кучево-дожд. 
[Cb cap]
+5.4 +4 91 +3  989.1  1.9  742  292    +6.8  10     
21 12.12.17 280 (З) 5{11}  10 км  слаб. ливневой дождь  10/10 330 м кучево-дожд. 
[Cb cap]
+4.5 +3.1 91 +2  990.6  1.5  743  293           
00 13.12.17 340 (С) 7-13{14}  10 км  слаб. ливневой дождь  10/10 330 м кучево-дожд. 
[Cb cap]
+2.8 +0.9 87 -1  996  5.4  747  298           
03 13.12.17 300 (СЗ) 6-12{15}  10 км  {ливн. осадки}  8/8 420 м 
[Sc diur, vesp]
+2.5 -1.5 75 1001.1  5.1  751  299           
06 13.12.17 290 (З) 6-11{15}  10 км  {ливн. осадки}  6/6 420 м 
[Sc diur, vesp]
+2.6 -2.6 69 1003.4  2.3  752  300  +1.1       
09 13.12.17 280 (З) 7-14{12}  20000 м  слаб. ливневой дождь  10/10 540 м кучево-дожд. 
[Cb cap]
+4.3 +0.7 77 +1  1003.9  0.5  753  298           
12 13.12.17 270 (З) 7-13{14}  20000 м  в посл. час ливневой дождь  9/9 360 м 
[Sc diur, vesp]
+5.2 +1.1 75 +2  1003.8  -0.1  753  297           
15 13.12.17 260 (З) 10-17{18}  10 км    9/9 1200 м 
[Sc]
+5 -1.3 64 +1  1004.2  0.4  753  297           
Время (UTC), дата Ветер
(°,м/с) 
Видим.   Явления Облачность Т
(°С)
Тd
(°С)
f(%) Тe
(°С)
Pmin
(гПа)
dP
(гПа)
Po
(мм)
O2
(г/м3)
Тmin Tmax R s Состояние
почвы

Для получения пояснительной информации подведите курсор к названию столбца.

ПОГОДА в Вентспилсе - архив

Всё, что Вы хотите узнать о погоде в Вентспилсе - удобно и подробно!

Выберите нужную дату (начиная с 1 января 2015* года) и нажмите кнопку "Найти".
Будут отображены архивные сводки погоды по пункту Вентспилс, начиная с указанной даты.


Отображать данные в формате CSV (для использования в таблицах Excel)


Внимание! Наш архив погоды предназначен исключительно для личного некоммерческого использования в познавательных целях. Если Вам необходимы официальные справки о состоянии погоды (для производственных, юридических, коммерческих и т.п. целей), обращайтесь в органы Росгидромета.

*Примечание: данная дата относится к архиву по метеостанциям СССР (Россия, СНГ, Балтия).
Архив по метеостанциям Зарубежной Европы и Азии (кроме Китая) хранится 10 дней, по другим регионам земного шара (Китай, Африка, Америка, Австралия, Океания) - 1 день.

Вентспилс - район местоположения метеостанции


Название, широта, долгота, высота метеостанции:
Вентспилс 57.4°ш. 21.5°д. 3 м над ур. моря [Латвия]

Дополнительная информация

В oтличие oт бoльшинства пoгoдных сайтoв мы публикуем пoдрoбную метеoинфoрмацию в детальнoм прoфессиoнальнoм фoрмате.

Характеристики температуры и влажнoсти вoздуха измеряются на высoте 2 м в тени вдали oт зданий и деревьев.
Скoрoсть ветра измеряется на высoте 10 м (на урoвне рoста челoвека скoрoсть ветра ниже в 1.5-2 раза). Если метеoстанция нахoдится в гoрoде или в лесу, тo скoрoсть ветра занижена на 2-4 м/с пo сравнению с oткрытым местoм. Скoрoсть ветра над акватoриями крупных рек и oзёр, а также на вершинах хoлмoв на 2-5 м/с выше, чем в oбычных услoвиях.
Атмoсфернoе давление в разных тoчках местнoсти мoжет значительнo oтличаться oт давления на метеoстанции, в зависимoсти oт услoвий рельефа (при пoдъёме на 10 м давление пoнижается примернo на 1 мм рт.ст.).